Time,TemperatureF,DewpointF,PressureIn,WindDirection,WindDirectionDegrees,WindSpeedMPH,WindSpeedGustMPH,Humidity,HourlyPrecipIn,Conditions,Clouds,dailyrainin,SolarRadiationWatts/m^2,SoftwareType,DateUTC
2013-07-23 00:22:00,55.0,54.0,29.94,WSW,238,6.0,-999.0,95,-99.99,,,-99.99,0.000000,,2013-07-23 07:22:00,
2013-07-23 00:33:00,55.0,54.0,29.94,WSW,238,6.0,-999.0,95,-99.99,,,-99.99,0.000000,,2013-07-23 07:33:00,
2013-07-23 00:42:00,55.0,54.0,29.94,WSW,238,6.0,-999.0,95,-99.99,,,-99.99,0.000000,,2013-07-23 07:42:00,
2013-07-23 00:52:00,55.0,54.0,29.94,WSW,238,6.0,-999.0,95,-99.99,,,-99.99,0.000000,,2013-07-23 07:52:00,
2013-07-23 01:01:00,55.0,54.0,29.94,WSW,238,6.0,-999.0,95,-99.99,,,-99.99,0.000000,,2013-07-23 08:01:00,
2013-07-23 02:22:00,55.0,54.0,29.95,WSW,244,4.0,-999.0,96,-99.99,,,-99.99,0.000000,,2013-07-23 09:22:00,
2013-07-23 02:33:00,55.0,54.0,29.95,WSW,244,4.0,-999.0,96,-99.99,,,-99.99,0.000000,,2013-07-23 09:33:00,
2013-07-23 02:42:00,55.0,54.0,29.95,WSW,244,4.0,-999.0,96,-99.99,,,-99.99,0.000000,,2013-07-23 09:42:00,
2013-07-23 02:53:00,55.0,54.0,29.95,WSW,244,4.0,-999.0,96,-99.99,,,-99.99,0.000000,,2013-07-23 09:53:00,
2013-07-23 03:01:00,55.0,54.0,29.95,WSW,244,4.0,-999.0,96,-99.99,,,-99.99,0.000000,,2013-07-23 10:01:00,
2013-07-23 04:32:00,55.0,54.0,29.93,SW,225,5.0,-999.0,97,-99.99,,,-99.99,0.000000,,2013-07-23 11:32:00,
2013-07-23 04:43:00,55.0,54.0,29.93,SW,225,5.0,-999.0,97,-99.99,,,-99.99,0.000000,,2013-07-23 11:43:00,
2013-07-23 04:52:00,55.0,54.0,29.93,SW,225,5.0,-999.0,97,-99.99,,,-99.99,0.000000,,2013-07-23 11:52:00,
2013-07-23 05:01:00,55.0,54.0,29.93,SW,225,5.0,-999.0,97,-99.99,,,-99.99,0.000000,,2013-07-23 12:01:00,
2013-07-23 06:22:00,55.0,54.0,29.97,WSW,240,5.0,-999.0,97,-99.99,,,-99.99,0.000000,,2013-07-23 13:22:00,
2013-07-23 06:32:00,55.0,54.0,29.97,WSW,240,5.0,-999.0,97,-99.99,,,-99.99,0.000000,,2013-07-23 13:32:00,
2013-07-23 06:43:00,55.0,54.0,29.97,WSW,240,5.0,-999.0,97,-99.99,,,-99.99,0.000000,,2013-07-23 13:43:00,
2013-07-23 06:52:00,55.0,54.0,29.97,WSW,240,5.0,-999.0,97,-99.99,,,-99.99,0.000000,,2013-07-23 13:52:00,
2013-07-23 07:02:00,55.0,54.0,29.97,WSW,240,5.0,-999.0,97,-99.99,,,-99.99,0.000000,,2013-07-23 14:02:00,
2013-07-23 08:32:00,56.0,55.0,29.98,SSW,211,2.0,-999.0,97,-99.99,,,-99.99,404.000000,,2013-07-23 15:32:00,
2013-07-23 08:43:00,56.0,55.0,29.98,SSW,211,2.0,-999.0,97,-99.99,,,-99.99,404.000000,,2013-07-23 15:43:00,
2013-07-23 08:52:00,56.0,55.0,29.98,SSW,211,2.0,-999.0,97,-99.99,,,-99.99,404.000000,,2013-07-23 15:52:00,
2013-07-23 09:01:00,56.0,55.0,29.98,SSW,211,2.0,-999.0,97,-99.99,,,-99.99,404.000000,,2013-07-23 16:01:00,
2013-07-23 10:32:00,63.0,58.0,29.99,South,188,4.0,-999.0,85,-99.99,,,-99.99,489.000000,,2013-07-23 17:32:00,
2013-07-23 10:42:00,63.0,58.0,29.99,South,188,4.0,-999.0,85,-99.99,,,-99.99,489.000000,,2013-07-23 17:42:00,
2013-07-23 11:01:00,63.0,58.0,29.99,South,188,4.0,-999.0,85,-99.99,,,-99.99,489.000000,,2013-07-23 18:01:00,
2013-07-23 12:35:00,61.0,56.0,30.00,West,273,8.0,-999.0,85,-99.99,,,-99.99,531.000000,,2013-07-23 19:35:00,
2013-07-23 12:47:00,61.0,56.0,30.00,West,273,8.0,-999.0,85,-99.99,,,-99.99,531.000000,,2013-07-23 19:47:00,
2013-07-23 12:54:00,61.0,56.0,30.00,West,273,8.0,-999.0,85,-99.99,,,-99.99,531.000000,,2013-07-23 19:54:00,
2013-07-23 13:01:00,61.0,56.0,30.00,West,273,8.0,-999.0,85,-99.99,,,-99.99,531.000000,,2013-07-23 20:01:00,
2013-07-23 14:38:00,61.0,56.0,29.99,West,263,7.0,-999.0,85,-99.99,,,-99.99,510.000000,,2013-07-23 21:38:00,
2013-07-23 14:47:00,61.0,56.0,29.99,West,263,7.0,-999.0,85,-99.99,,,-99.99,510.000000,,2013-07-23 21:47:00,
2013-07-23 14:56:00,61.0,56.0,29.99,West,263,7.0,-999.0,85,-99.99,,,-99.99,510.000000,,2013-07-23 21:56:00,
2013-07-23 15:01:00,61.0,56.0,29.99,West,263,7.0,-999.0,85,-99.99,,,-99.99,510.000000,,2013-07-23 22:01:00,
2013-07-23 16:37:00,61.0,56.0,29.97,WSW,256,10.0,-999.0,84,-99.99,,,-99.99,406.000000,,2013-07-23 23:37:00,
2013-07-23 16:46:00,61.0,56.0,29.97,WSW,256,10.0,-999.0,84,-99.99,,,-99.99,406.000000,,2013-07-23 23:46:00,
2013-07-23 16:58:00,61.0,56.0,29.97,WSW,256,10.0,-999.0,84,-99.99,,,-99.99,406.000000,,2013-07-23 23:58:00,
2013-07-23 18:58:00,58.0,55.0,29.95,SW,234,10.0,-999.0,91,-99.99,,,-99.99,213.000000,,2013-07-24 01:58:00,
2013-07-23 20:39:00,56.0,55.0,29.96,SW,229,5.0,-999.0,95,-99.99,,,-99.99,12.000000,,2013-07-24 03:39:00,
2013-07-23 20:46:00,56.0,55.0,29.96,SW,229,5.0,-999.0,95,-99.99,,,-99.99,12.000000,,2013-07-24 03:46:00,
2013-07-23 20:55:00,56.0,55.0,29.96,SW,229,5.0,-999.0,95,-99.99,,,-99.99,12.000000,,2013-07-24 03:55:00,
2013-07-23 21:01:00,56.0,55.0,29.96,SW,229,5.0,-999.0,95,-99.99,,,-99.99,12.000000,,2013-07-24 04:01:00,
2013-07-23 22:22:00,55.0,54.0,29.98,SW,232,7.0,-999.0,96,-99.99,,,-99.99,0.000000,,2013-07-24 05:22:00,
2013-07-23 22:33:00,55.0,54.0,29.98,SW,232,7.0,-999.0,96,-99.99,,,-99.99,0.000000,,2013-07-24 05:33:00,
2013-07-23 22:43:00,55.0,54.0,29.98,SW,232,7.0,-999.0,96,-99.99,,,-99.99,0.000000,,2013-07-24 05:43:00,
2013-07-23 22:52:00,55.0,54.0,29.98,SW,232,7.0,-999.0,96,-99.99,,,-99.99,0.000000,,2013-07-24 05:52:00,
2013-07-23 23:01:00,55.0,54.0,29.98,SW,232,7.0,-999.0,96,-99.99,,,-99.99,0.000000,,2013-07-24 06:01:00,